Location: Erhausen
(51.2576°N, 10.1629°E)
Time: 14:25:13
(UTC+00:00)

Daily predictions for brighter satellites

Satellite Brightness Start Highest point End
(mag) Time Altitude Azimuth Time Altitude Azimuth Time Altitude Azimuth
Cosmos 2082 3.8 19:52:40 10° NNW 19:58:19 79° WSW 20:03:55 10° SSE
Meteor 1-11 Rocket 4.3 19:53:12 10° NNW 19:59:08 66° W 20:05:01 10° S
Cosmos 482 Debris 3.8 19:58:45 10° W 20:01:17 58° SSW 20:05:07 10° ESE
Cosmos 2263 Rocket 2.4 19:55:54 10° NNW 20:01:29 64° NE 20:07:01 10° SE
Cosmos 1470 Rocket 4.2 19:57:14 10° NNW 20:01:30 57° W 20:05:43 10° S
Cosmos 1743 3.0 20:01:00 10° NNW 20:04:47 69° W 20:08:31 10° S
Ariane Rocket 3.3 20:02:04 10° S 20:07:08 73° WSW 20:12:15 10° NNW
IRAS Rocket 4.3 20:05:01 10° NNE 20:10:41 83° ESE 20:16:20 10° SSW
BREEZE-M DEB (TANK) 1.8 20:09:16 10° WSW 20:11:52 53° S 20:14:01 10° E
SPOT 5 3.4 20:07:06 10° SE 20:12:14 55° ENE 20:17:12 10° N
Terra 2.6 20:09:26 10° SE 20:13:51 39° ENE 20:18:17 10° N
Resurs 01 Rocket 2.6 20:11:44 10° S 20:15:56 45° W 20:20:12 10° NNW
Aureole 1 Rocket 2.3 20:14:51 10° SSW 20:17:57 77° WNW 20:20:57 10° NNE
Cosmos 1346 Rocket 4.4 20:15:08 10° SE 20:18:04 20° E 20:21:01 10° NE
Cosmos 1515 Rocket 3.9 20:14:23 10° SSW 20:18:44 70° WNW 20:23:10 10° N
Cosmos 2227 Rocket 3.8 20:14:18 10° NW 20:19:07 29° WSW 20:23:56 10° SSW
Cosmos 921 Rocket 3.5 20:16:03 10° NNW 20:20:33 64° WSW 20:24:59 10° S
Geosat FO 4.4 20:23:26 11° SE 20:26:40 84° ENE 20:30:00 10° NNW
Cosmos 1869 Rocket 3.6 20:25:21 10° N 20:29:53 86° ENE 20:34:22 10° S
SL-24 R/B - RUBIN 2 3.6 20:26:05 10° NW 20:30:29 77° NE 20:34:40 12° SE
Cosmos 1980 Rocket 2.2 20:25:19 10° SSW 20:30:56 75° ESE 20:36:38 10° NNE
CARTOSAT-1 3.9 20:27:04 10° S 20:31:20 63° WSW 20:35:38 10° NNW
Cosmos 2228 Rocket 3.3 20:29:54 10° S 20:34:23 60° E 20:38:53 10° NNE
Cosmos 1464 Rocket 4.3 20:29:26 10° SSW 20:35:37 70° WNW 20:41:47 10° N
Cosmos 1378 3.5 20:34:31 11° SSE 20:37:55 45° E 20:41:26 10° NNE
ISS -3.2 20:35:46 10° W 20:38:59 42° SSW 20:41:27 15° SE
Cosmos 2344 3.5 20:31:48 10° SSW 20:39:12 76° SE 20:47:03 10° NE
Cosmos 2322 Rocket 3.5 20:36:17 12° SE 20:39:49 21° E 20:43:53 10° NE
Cosmos 1777 Rocket 4.1 20:35:06 10° S 20:40:11 56° ESE 20:45:20 10° NNE
Cosmos 773 Rocket 4.3 20:35:04 10° NNW 20:40:15 63° WSW 20:45:18 10° S
Cosmos 2369 3.8 20:34:58 10° SSW 20:40:38 85° WNW 20:46:22 10° NNE
Spot 2 Rocket 3.5 20:35:45 10° SSE 20:40:47 87° WSW 20:45:53 10° NNW
Cosmos 1844 Rocket 3.8 20:35:46 10° NNW 20:40:55 35° NE 20:46:00 10° ESE
Cosmos 1354 Rocket 4.0 20:36:08 10° SSW 20:41:24 85° ESE 20:46:46 10° NNE
SPOT 3 Rocket 4.0 20:36:59 10° S 20:42:03 58° W 20:47:10 10° NNW
ATLAS 2AS CENTAUR R/B 3.0 20:36:19 10° SSW 20:43:59 63° SE 20:51:23 10° NE
H-2A R/B 4.2 20:41:13 10° N 20:44:39 26° WNW 20:48:05 10° WSW
Okean 1 3.4 20:41:41 10° SSW 20:45:41 78° W 20:49:44 10° N
Cosmos 1092 Rocket 4.0 20:39:53 10° N 20:46:08 85° E 20:52:05 11° S
Meteor 2-4 Rocket 4.0 20:40:40 10° S 20:46:14 53° E 20:51:42 10° NNE
Nadezhda 4 Rocket 4.5 20:40:44 10° NNW 20:46:52 60° W 20:52:53 10° S
Meteor 1-19 Rocket 4.2 20:42:26 10° SSW 20:47:52 89° WNW 20:53:20 10° NNE
NOSS 3-4 (A) 4.1 20:42:58 10° WSW 20:48:42 60° NW 20:55:03 10° NE
NOSS 3-4 (C) 4.1 20:43:00 10° WSW 20:48:46 60° NW 20:55:08 10° NE
SL-4 R/B 4.4 20:46:58 10° WSW 20:49:06 13° SW 20:51:12 10° SSW
RESURS DK-1 2.3 20:45:37 10° SSW 20:49:42 65° ESE 20:53:48 10° NE
Cosmos 1697 Rocket 3.8 20:44:29 10° SW 20:49:59 50° NW 20:55:31 10° NNE
USA 267 3.9 20:47:28 10° E 20:53:52 58° N 21:00:16 10° WNW
Cosmos 1634 Rocket 4.1 20:50:09 10° S 20:56:16 64° E 21:02:23 10° NNE
ATLAS CENTAUR R/B 3.1 20:52:12 10° NNW 20:56:42 34° NNE 21:01:05 10° E
ARIANE 5 R/B 2.7 20:53:39 15° SSE 20:57:19 75° ENE 21:01:51 10° NNW
Cosmos 44 Rocket 3.4 20:53:11 10° NW 20:57:52 63° SW 21:01:28 16° SSE
Cosmos 1707 Rocket 3.7 20:54:13 13° S 20:58:05 57° E 21:02:25 10° NNE
Cosmos 2227 4.4 20:57:33 10° NNW 21:03:18 74° WSW 21:07:59 16° SSE
Cosmos 1733 4.1 21:00:44 10° N 21:04:14 35° ENE 21:06:32 18° SE
Cosmos 158 Rocket 4.2 21:00:02 10° NNW 21:05:06 64° WSW 21:09:24 15° S
ATLAS 3B R/B 2.9 20:59:40 10° NW 21:07:01 86° SW 21:13:24 16° SE
NOSS 2-1 (E) 3.5 21:08:10 19° S 21:09:53 31° SE 21:12:49 10° ENE
Cosmos 1975 3.2 21:06:14 10° NNW 21:10:16 62° W 21:13:33 15° S
Cosmos 2026 Rocket 4.1 21:05:12 10° NNW 21:11:21 75° W 21:17:01 13° S
USA 81 4.0 21:09:00 13° S 21:13:46 79° E 21:19:04 10° N
CZ-4B R/B 4.5 21:13:47 10° NNW 21:15:15 13° WNW 21:16:43 10° W
ERS-1 Rocket 3.6 21:12:32 12° S 21:17:04 52° W 21:22:00 10° NNW
Meteor 1-4 Rocket 2.8 21:14:17 10° N 21:17:41 51° ENE 21:19:36 23° SE
SL-16 R/B 2.4 21:13:28 11° S 21:18:44 52° ESE 21:24:15 10° NE
CZ-4C R/B 3.7 21:12:28 10° NW 21:18:49 46° NNE 21:26:28 10° ESE
Cosmos 1538 Rocket 4.2 21:15:16 10° NNW 21:20:29 67° WSW 21:24:18 18° S
CZ-2C R/B 4.0 21:17:49 10° NNE 21:22:36 74° WNW 21:27:21 10° SSW
Meteor 2-10 4.4 21:19:10 10° N 21:24:22 53° ENE 21:27:49 20° SE
Cosmos 1733 Rocket 3.2 21:20:06 10° NNW 21:24:34 76° W 21:27:44 19° S
GENESIS II 4.2 21:21:13 10° SSW 21:24:59 59° SE 21:28:54 10° NE
Meteor 2-8 Rocket 4.5 21:25:01 10° SSW 21:31:03 84° W 21:37:11 10° N
SAR-Lupe-4 3.5 21:27:38 10° NNE 21:31:15 68° ESE 21:33:22 23° S
Geosat 4.0 21:28:35 20° SSE 21:32:03 80° WSW 21:37:07 10° NNW
EP 1 4.5 21:29:19 11° SSW 21:32:28 59° SE 21:35:09 10° NE
SJ 16-02 2.7 21:29:28 10° SW 21:33:34 39° WNW 21:37:42 10° N
Cosmos 1908 Rocket 3.8 21:31:54 10° N 21:36:11 55° ENE 21:38:37 24° SE
Cosmos 1356 3.7 21:35:10 29° SSE 21:36:27 47° E 21:39:39 10° NNE
Cosmos 923 Rocket 4.0 21:33:17 10° NNW 21:38:40 84° ENE 21:42:10 22° SSE
Cosmos 2278 4.3 21:33:50 10° SW 21:39:26 60° NW 21:45:05 10° NNE
Cosmos 1862 Rocket 3.6 21:37:31 18° S 21:40:52 86° W 21:45:23 10° N
Cosmos 1470 4.5 21:38:39 10° NNE 21:41:44 22° ENE 21:43:46 15° ESE
Cosmos 1726 2.8 21:39:58 10° N 21:43:30 43° ENE 21:45:09 26° SE
Cosmos 2360 Rocket 2.7 21:40:42 21° SSE 21:43:52 40° ESE 21:49:06 10° NE
Cosmos 2263 Rocket 3.7 21:40:28 10° NW 21:44:59 26° WSW 21:49:11 11° SSW
Cosmos 1937 Rocket 4.4 21:42:38 22° SE 21:45:00 31° ESE 21:49:37 10° NE
Cosmos 2266 Rocket 4.1 21:40:57 10° N 21:47:14 69° ENE 21:51:20 22° SSE
ALOS 2 3.9 21:44:37 17° ESE 21:47:19 31° ENE 21:51:13 10° N
Meteor 1-13 Rocket 4.3 21:44:29 21° S 21:48:14 64° E 21:53:43 10° NNE
NOSS 2-1 (C) 2.7 21:46:58 10° SW 21:50:12 89° NNW 21:53:30 10° NE
Terra 3.2 21:47:56 13° SSW 21:51:41 32° W 21:55:57 10° NNW
SAR-Lupe-1 4.5 21:48:43 10° N 21:52:16 61° WNW 21:54:47 18° SSW
Cosmos 1441 Rocket 3.1 21:51:04 23° SSW 21:53:17 80° WNW 21:57:01 10° N
Cosmos 1346 Rocket 3.8 21:50:23 11° SW 21:54:03 44° WNW 21:57:55 10° N
Cosmos 2279 Rocket 4.1 21:53:30 14° SSW 21:58:51 74° WNW 22:05:07 10° N
Cosmos 2112 Rocket 4.0 21:53:53 10° NNW 21:59:15 82° ENE 22:02:27 25° SSE
USA 215 3.7 21:53:18 10° ENE 21:59:20 37° SE 22:03:42 18° SSW
Cosmos 1680 Rocket 3.5 21:54:58 10° NNW 22:00:20 87° WSW 22:03:26 26° SSE
Cosmos 2278 Rocket 4.0 21:55:49 10° NNW 22:00:37 27° NE 22:05:21 10° E
NOSS 2-1 (D) 3.0 21:57:28 10° SW 22:00:40 72° NW 22:03:59 10° NE
Cosmos 990 Rocket 3.9 21:57:54 18° SSW 22:01:48 78° ESE 22:07:04 10° NNE
MINOTAUR IV R/B 4.5 22:00:16 19° SSW 22:03:26 82° ESE 22:07:57 10° NNE
Cosmos 1842 4.2 22:03:47 27° SE 22:05:03 34° E 22:08:36 10° NNE
Meteor 1-12 Rocket 4.4 21:59:14 10° NNW 22:05:13 82° W 22:08:53 24° S
Cosmos 1818 3.5 22:03:24 10° NW 22:08:54 79° SW 22:12:08 25° SSE
Cosmos 1066 Rocket 4.3 22:05:06 18° SSW 22:09:29 80° WNW 22:15:10 10° N
ADEOS Rocket 3.7 22:05:31 17° SE 22:09:34 43° ENE 22:15:19 10° N
Spot 4 3.9 22:07:13 27° SSE 22:09:52 77° ENE 22:14:41 10° NNW
Iridium 4 Rocket 3.2 22:06:33 10° N 22:11:07 83° E 22:13:43 28° S
Cosmos 1898 Rocket 3.5 22:11:49 23° S 22:15:09 70° ESE 22:20:28 10° NNE
Cosmos 1980 Rocket 4.3 22:10:44 10° W 22:15:32 28° NW 22:20:23 10° NNE
Okean 1-7 3.0 22:17:25 28° S 22:19:41 90° E 22:24:05 10° N
Iridium 51 4.5 22:21:00 29° SSW 22:22:30 55° W 22:26:03 10° N
Cosmos 2322 Rocket 2.3 22:18:02 12° SW 22:23:14 78° WNW 22:28:53 10° NNE
Cosmos 1844 Rocket 3.0 22:19:37 10° NW 22:25:03 52° WSW 22:27:57 26° S
Okean 3 3.4 22:25:02 32° S 22:26:56 83° E 22:31:13 10° NNE
Cosmos 2322 4.4 22:25:29 26° SSE 22:27:53 37° ESE 22:33:07 10° NE
Cosmos 2333 Rocket 2.5 22:25:18 27° S 22:28:04 49° ESE 22:33:32 10° NE
H-2A R/B 3.6 22:26:45 10° NNE 22:30:49 59° ESE 22:32:21 35° SSE
Cosmos 1461 3.1 22:27:20 10° NW 22:31:28 68° NE 22:33:55 24° SE
BREEZE-M DEB (TANK) 4.1 22:30:23 10° WSW 22:31:52 19° SW 22:31:52 19° SW
USA 229 DEB 4.2 22:27:30 10° NW 22:34:40 65° NE 22:42:22 10° ESE
USA 229 4.3 22:27:36 10° NW 22:34:45 65° NE 22:42:26 10° ESE
ATLAS 2AS CENTAUR R/B 3.8 22:27:44 10° WSW 22:35:16 52° NNW 22:42:28 10° NE
ATLAS CENTAUR R/B 1.8 22:31:00 10° NW 22:35:49 61° SW 22:37:51 32° SSE
USA 267 3.2 22:30:08 10° ESE 22:36:44 87° SSW 22:43:19 10° WNW
Meteor 1-23 Rocket 4.3 22:34:01 25° S 22:37:36 90° ESE 22:43:29 10° NNE
Cosmos 1766 4.2 22:38:08 10° NNW 22:41:48 38° W 22:43:23 26° SW
NOSS 2-2 (E) 4.4 22:38:55 10° NW 22:43:39 68° NE 22:49:59 11° SE
Cosmos 2219 Rocket 2.4 22:44:47 29° S 22:47:24 53° ESE 22:52:50 10° NE
Cosmos 1844 4.4 22:43:14 10° NW 22:48:41 43° WSW 22:51:27 26° SSW
Cosmos 1703 Rocket 4.2 22:48:15 23° SW 22:50:48 50° WNW 22:55:08 10° N
Cosmos 2221 Rocket 4.5 22:51:05 27° SE 22:52:44 37° E 22:56:48 10° NNE
Cosmos 494 Rocket 4.5 22:48:26 10° NNW 22:53:29 54° ENE 22:56:50 20° SE
Cosmos 1048 Rocket 4.3 22:48:46 10° NNW 22:53:54 59° ENE 22:57:08 22° SE
Cosmos 372 Rocket 3.9 22:51:17 29° SSW 22:53:58 78° ESE 22:59:09 10° NNE
ATLAS 3B R/B 4.2 22:51:12 10° WNW 22:57:00 25° WSW 23:00:38 18° SSW
NOSS 3-1 (A) 4.0 22:54:06 10° NW 23:01:22 87° SW 23:08:58 14° SE
Cosmos 1707 2.7 23:00:36 41° S 23:01:50 74° E 23:05:42 10° NNE
Cosmos 1782 Rocket 4.5 22:58:58 10° NNW 23:03:01 38° W 23:04:50 26° SW
SL-16 R/B 3.6 22:57:52 10° WSW 23:03:05 36° NW 23:08:19 10° NNE
ERS-2 2.0 23:02:05 10° NNE 23:05:43 81° WNW 23:06:52 41° SSW
CZ-4C R/B 2.9 23:00:54 10° NW 23:07:57 75° SW 23:14:17 19° SSE
Okean 2 3.6 23:06:39 37° SSE 23:08:01 57° E 23:12:04 10° NNE
NOSS 3-1 (C) 4.2 23:01:22 10° NW 23:08:35 59° SW 23:14:02 23° SSE
USA 290 2.9 23:10:46 38° ESE 23:10:58 39° ESE 23:14:01 10° NE
Cosmos 1238 Rocket 2.5 23:08:28 10° N 23:11:24 53° ENE 23:11:57 44° ESE
Gblst 52 Del rocket 4.2 23:09:38 10° WSW 23:15:56 76° SSE 23:21:36 10° ENE
Cosmos 2237 Rocket 3.5 23:14:56 20° SE 23:17:17 27° ESE 23:21:58 10° NE
Cosmos 1470 3.6 23:14:15 10° NNW 23:17:51 37° W 23:19:01 29° SW
KORONAS-FOTON 3.8 23:16:49 42° SSE 23:17:56 69° E 23:21:45 10° NNE
Cosmos 1726 4.2 23:15:43 10° NW 23:18:10 17° W 23:19:26 15° WSW
Cosmos 1300 Rocket 4.1 23:15:02 10° NNW 23:19:13 47° W 23:20:51 31° SSW
NOSS 2-2 (D) 4.1 23:14:52 10° NW 23:19:38 89° NE 23:25:34 13° SE
COSMOS 2428 2.8 23:17:53 29° S 23:20:47 67° ESE 23:26:26 10° NE
Cosmos 1745 Rocket 4.2 23:14:53 10° N 23:21:07 66° ENE 23:25:01 24° SSE
PSLV R/B 3.9 23:17:34 10° NNE 23:21:54 58° E 23:23:41 33° SSE
Cosmos 2151 Rocket 3.5 23:17:42 10° N 23:22:08 90° ENE 23:23:57 35° S
Resurs 1-4 Rocket 4.4 23:20:23 10° ENE 23:22:10 12° E 23:23:57 10° ESE
ALOS 2 3.6 23:22:00 26° SW 23:23:36 35° W 23:27:40 10° NNW
Cosmos 1242 Rocket 2.7 23:21:42 10° NNW 23:25:15 58° W 23:26:07 43° SSW
Okean 2 Rocket 3.1 23:21:41 10° NNW 23:26:13 74° W 23:28:05 35° S
USA 305 4.1 23:26:44 25° SE 23:26:44 25° SE 23:29:58 10° E
Cosmos 1937 Rocket 4.3 23:22:46 16° SW 23:26:47 47° WNW 23:31:55 10° NNE
Cosmos 2360 Rocket 3.1 23:22:27 10° WSW 23:27:50 44° NW 23:33:17 10° NNE
Cosmos 1943 Rocket 3.8 23:24:15 10° NNW 23:29:23 33° NE 23:34:29 10° ESE
Cosmos 405 Rocket 3.1 23:28:20 36° SE 23:29:25 49° E 23:33:06 10° NNE
Cosmos 1437 Rocket 2.8 23:28:25 10° N 23:32:10 65° ENE 23:33:33 35° SE
In-Cosmos 22 4.2 23:29:31 28° SSW 23:32:32 81° WNW 23:38:01 10° N
Nimbus 7 Rocket 4.4 23:27:03 10° NNE 23:32:57 76° ESE 23:36:12 28° S
Cosmos 1908 3.1 23:29:51 10° NNW 23:33:39 77° W 23:34:48 42° S
Cosmos 1867 3.5 23:33:44 28° SSW 23:36:41 73° SE 23:42:10 10° NE
Cosmos 2298 Rocket 4.5 23:34:33 28° SSE 23:36:57 49° ESE 23:42:03 10° NNE
Meteor 1-21 4.4 23:34:35 26° SSW 23:37:57 72° WNW 23:43:46 10° N
Cosmos 1626 2.0 23:37:36 44° SSW 23:38:41 87° W 23:42:22 10° N
GP-B 4.4 23:35:32 10° NNE 23:39:32 31° E 23:42:03 18° SE
USA 215 3.2 23:36:14 10° ENE 23:42:49 89° NNW 23:49:25 10° WSW
Cosmos 1953 2.3 23:39:07 10° N 23:43:09 76° E 23:44:46 35° SSE
Cosmos 2278 Rocket 2.1 23:39:38 10° NNW 23:45:20 79° WSW 23:48:51 24° SSE
Cosmos 1674 3.1 23:50:45 33° SW 23:52:04 51° WNW 23:55:47 10° N
